| time (UTC) | temp F | wind direction | speed knots | gust knots | rain 1hr in | rain 24hr in | rain mn in | humidity % | barometer mb |
| 20260506201432 | 58 | 135 | 2.6 | 3.5 | 0.00 | 0.00 | 0.00 | 97 | 1009.0 |
| 20260506200928 | 57 | 73 | 3.5 | 7.0 | 0.00 | 0.00 | 0.00 | 97 | 1008.9 |
| 20260506200425 | 58 | 142 | 0.0 | 4.3 | 0.00 | 0.00 | 0.00 | 97 | 1009.0 |
| 20260506195921 | 58 | 127 | 1.7 | 4.3 | 0.00 | 0.00 | 0.00 | 96 | 1009.0 |
| 20260506195419 | 58 | 129 | 1.7 | 5.2 | 0.00 | 0.00 | 0.00 | 96 | 1009.0 |
| 20260506194915 | 58 | 122 | 1.7 | 4.3 | 0.00 | 0.00 | 0.00 | 96 | 1009.2 |
| 20260506194412 | 58 | 109 | 1.7 | 4.3 | 0.00 | 0.00 | 0.00 | 97 | 1009.1 |
| 20260506193909 | 57 | 172 | 4.3 | 7.0 | 0.00 | 0.00 | 0.00 | 97 | 1009.3 |
| 20260506193406 | 57 | 159 | 1.7 | 7.8 | 0.00 | 0.00 | 0.00 | 97 | 1009.5 |
| 20260506192902 | 57 | 161 | 3.5 | 9.6 | 0.00 | 0.00 | 0.00 | 97 | 1009.4 |
| 20260506192359 | 58 | 80 | 1.7 | 7.0 | 0.00 | 0.00 | 0.00 | 97 | 1009.5 |
| 20260506191856 | 58 | 222 | 0.0 | 3.5 | 0.00 | 0.00 | 0.00 | 97 | 1009.4 |
| 20260506191352 | 58 | 46 | 4.3 | 4.3 | 0.00 | 0.00 | 0.00 | 97 | 1009.5 |
| 20260506190849 | 57 | 279 | 0.0 | 5.2 | 0.00 | 0.00 | 0.00 | 97 | 1009.5 |
| 20260506190346 | 58 | 105 | 0.0 | 4.3 | 0.00 | 0.00 | 0.00 | 97 | 1009.7 |
| 20260506185843 | 57 | 98 | 3.5 | 5.2 | 0.00 | 0.00 | 0.00 | 97 | 1009.6 |
| 20260506185340 | 57 | 69 | 0.9 | 6.1 | 0.00 | 0.00 | 0.00 | 97 | 1009.7 |
| 20260506184831 | 58 | 76 | 2.6 | 5.2 | 0.00 | 0.00 | 0.00 | 97 | 1009.9 |
| 20260506184329 | 57 | 180 | 1.7 | 12.2 | 0.00 | 0.00 | 0.00 | 97 | 1010.0 |
| 20260506183826 | 57 | 138 | 2.6 | 4.3 | 0.00 | 0.00 | 0.00 | 97 | 1009.8 |
| 20260506183321 | 57 | 146 | 4.3 | 7.8 | 0.00 | 0.00 | 0.00 | 96 | 1010.1 |
| 20260506182819 | 57 | 135 | 0.9 | 4.3 | 0.00 | 0.00 | 0.00 | 96 | 1010.3 |
| 20260506182315 | 57 | 117 | 2.6 | 2.6 | 0.00 | 0.00 | 0.00 | 96 | 1010.1 |
| 20260506181808 | 57 | 131 | 2.6 | 7.0 | 0.00 | 0.00 | 0.00 | 96 | 1010.1 |
| 20260506181305 | 57 | 98 | 3.5 | 11.3 | 0.00 | 0.00 | 0.00 | 96 | 1010.1 |
| 20260506180802 | 57 | 135 | 1.7 | 9.6 | 0.00 | 0.00 | 0.00 | 96 | 1009.9 |
| 20260506180258 | 58 | 203 | 1.7 | 4.3 | 0.00 | 0.00 | 0.00 | 96 | 1009.7 |
| 20260506175754 | 58 | 127 | 1.7 | 7.8 | 0.00 | 0.00 | 0.00 | 95 | 1009.8 |
| 20260506175251 | 58 | 191 | 2.6 | 5.2 | 0.00 | 0.00 | 0.00 | 95 | 1010.0 |
| 20260506174749 | 58 | 126 | 0.0 | 3.5 | 0.00 | 0.00 | 0.00 | 95 | 1010.3 |
| 20260506174246 | 58 | 137 | 2.6 | 5.2 | 0.00 | 0.00 | 0.00 | 95 | 1010.2 |
| 20260506173743 | 58 | 165 | 3.5 | 4.3 | 0.00 | 0.00 | 0.00 | 94 | 1010.4 |
| 20260506173240 | 58 | 128 | 1.7 | 4.3 | 0.00 | 0.00 | 0.00 | 94 | 1010.5 |
| 20260506172737 | 58 | 96 | 1.7 | 7.0 | 0.00 | 0.00 | 0.00 | 93 | 1010.7 |
| 20260506172233 | 58 | 143 | 3.5 | 4.3 | 0.00 | 0.00 | 0.00 | 93 | 1010.8 |
| 20260506171731 | 59 | 161 | 3.5 | 5.2 | 0.00 | 0.00 | 0.00 | 91 | 1010.9 |
| 20260506171228 | 59 | 129 | 4.3 | 7.0 | 0.00 | 0.00 | 0.00 | 90 | 1011.0 |
| 20260506170725 | 59 | 142 | 0.9 | 5.2 | 0.00 | 0.00 | 0.00 | 88 | 1011.3 |
| 20260506170216 | 60 | 179 | 1.7 | 1.7 | 0.00 | 0.00 | 0.00 | 87 | 1011.3 |
| 20260506165715 | 60 | 102 | 3.5 | 3.5 | 0.00 | 0.00 | 0.00 | 85 | 1011.3 |
| 20260506165211 | 61 | 89 | 0.0 | 6.1 | 0.00 | 0.00 | 0.00 | 83 | 1011.3 |
| 20260506164709 | 61 | 107 | 0.9 | 4.3 | 0.00 | 0.00 | 0.00 | 83 | 1011.4 |
| 20260506164206 | 62 | 124 | 1.7 | 4.3 | 0.00 | 0.00 | 0.00 | 81 | 1011.3 |
| 20260506163702 | 62 | 237 | 6.1 | 10.4 | 0.00 | 0.00 | 0.00 | 79 | 1011.4 |
| 20260506163157 | 62 | 199 | 4.3 | 10.4 | 0.00 | 0.00 | 0.00 | 79 | 1011.2 |
| 20260506162653 | 62 | 111 | 0.9 | 4.3 | 0.00 | 0.00 | 0.00 | 79 | 1011.3 |
| 20260506162151 | 63 | 136 | 2.6 | 5.2 | 0.00 | 0.00 | 0.00 | 78 | 1011.5 |
| 20260506161648 | 63 | 166 | 6.1 | 9.6 | 0.00 | 0.00 | 0.00 | 77 | 1011.3 |
| 20260506161145 | 63 | 157 | 7.8 | 7.8 | 0.00 | 0.00 | 0.00 | 77 | 1011.3 |
| 20260506160643 | 63 | 146 | 1.7 | 5.2 | 0.00 | 0.00 | 0.00 | 77 | 1011.5 |
| 20260506160139 | 64 | 120 | 4.3 | 6.1 | 0.00 | 0.00 | 0.00 | 76 | 1011.5 |
| 20260506155637 | 64 | 238 | 1.7 | 6.1 | 0.00 | 0.00 | 0.00 | 76 | 1011.6 |
| 20260506155134 | 64 | 141 | 0.9 | 5.2 | 0.00 | 0.00 | 0.00 | 77 | 1011.9 |
| 20260506153236 | 64 | 176 | 1.7 | 7.0 | 0.00 | 0.00 | 0.00 | 77 | 1011.8 |
| 20260506152733 | 64 | 98 | 1.7 | 2.6 | 0.00 | 0.00 | 0.00 | 76 | 1011.6 |
| 20260506152231 | 64 | 168 | 1.7 | 3.5 | 0.00 | 0.00 | 0.00 | 76 | 1011.5 |
| 20260506151730 | 64 | 148 | 3.5 | 6.1 | 0.00 | 0.00 | 0.00 | 77 | 1011.5 |
| 20260506151225 | 64 | 216 | 3.5 | 7.8 | 0.00 | 0.00 | 0.00 | 76 | 1011.5 |
| 20260506150722 | 64 | 147 | 0.9 | 7.8 | 0.00 | 0.00 | 0.00 | 76 | 1011.5 |
| 20260506150220 | 64 | 25 | 1.7 | 4.3 | 0.00 | 0.00 | 0.00 | 75 | 1011.7 |
| 20260506145717 | 65 | 154 | 1.7 | 7.0 | 0.00 | 0.00 | 0.00 | 74 | 1011.7 |
| 20260506145213 | 66 | 74 | 2.6 | 5.2 | 0.00 | 0.00 | 0.00 | 74 | 1011.6 |
| 20260506144710 | 65 | 273 | 3.5 | 3.5 | 0.00 | 0.00 | 0.00 | 74 | 1011.7 |
| 20260506144207 | 65 | 145 | 0.0 | 8.7 | 0.00 | 0.00 | 0.00 | 74 | 1011.8 |
| 20260506143705 | 65 | 137 | 4.3 | 8.7 | 0.00 | 0.00 | 0.00 | 74 | 1011.9 |
| 20260506143203 | 65 | 125 | 4.3 | 8.7 | 0.00 | 0.00 | 0.00 | 74 | 1011.8 |
| 20260506142701 | 65 | 183 | 3.5 | 7.8 | 0.00 | 0.00 | 0.00 | 73 | 1011.7 |
| 20260506142158 | 66 | 152 | 7.8 | 10.4 | 0.00 | 0.00 | 0.00 | 72 | 1011.8 |
| 20260506141655 | 65 | 150 | 5.2 | 7.8 | 0.00 | 0.00 | 0.00 | 73 | 1011.9 |
| 20260506141153 | 66 | 118 | 1.7 | 7.8 | 0.00 | 0.00 | 0.00 | 73 | 1011.8 |
| 20260506140651 | 66 | 159 | 3.5 | 8.7 | 0.00 | 0.00 | 0.00 | 72 | 1011.9 |
| 20260506140148 | 64 | 199 | 6.1 | 11.3 | 0.00 | 0.00 | 0.00 | 75 | 1012.0 |
| 20260506135645 | 64 | 100 | 2.6 | 8.7 | 0.00 | 0.00 | 0.00 | 75 | 1012.0 |
| 20260506135141 | 64 | 68 | 4.3 | 7.0 | 0.00 | 0.00 | 0.00 | 76 | 1012.0 |
| 20260506134638 | 64 | 81 | 3.5 | 8.7 | 0.00 | 0.00 | 0.00 | 76 | 1011.9 |
| 20260506134134 | 64 | 38 | 0.9 | 5.2 | 0.00 | 0.00 | 0.00 | 76 | 1011.8 |
| 20260506133631 | 64 | 161 | 4.3 | 8.7 | 0.00 | 0.00 | 0.00 | 76 | 1011.6 |
| 20260506133128 | 64 | 152 | 3.5 | 17.4 | 0.00 | 0.00 | 0.00 | 77 | 1011.7 |
| 20260506132626 | 63 | 167 | 1.7 | 4.3 | 0.00 | 0.00 | 0.00 | 78 | 1011.8 |
| 20260506132122 | 63 | 174 | 3.5 | 9.6 | 0.00 | 0.00 | 0.00 | 79 | 1011.8 |
| 20260506131620 | 62 | 142 | 3.5 | 7.8 | 0.00 | 0.00 | 0.00 | 79 | 1012.0 |
| 20260506131116 | 62 | 142 | 7.0 | 7.0 | 0.00 | 0.00 | 0.00 | 80 | 1011.7 |
| 20260506130613 | 62 | 144 | 5.2 | 10.4 | 0.00 | 0.00 | 0.00 | 80 | 1011.9 |
| 20260506130111 | 62 | 281 | 1.7 | 8.7 | 0.00 | 0.00 | 0.00 | 80 | 1011.8 |
| 20260506125609 | 62 | 159 | 4.3 | 6.1 | 0.00 | 0.00 | 0.00 | 80 | 1011.9 |
| 20260506125106 | 62 | 128 | 3.5 | 7.0 | 0.00 | 0.00 | 0.00 | 80 | 1012.0 |
| 20260506124603 | 62 | 205 | 1.7 | 7.0 | 0.00 | 0.00 | 0.00 | 80 | 1012.0 |
| 20260506124101 | 62 | 219 | 3.5 | 8.7 | 0.00 | 0.00 | 0.00 | 81 | 1012.4 |
| 20260506123559 | 62 | 173 | 3.5 | 9.6 | 0.00 | 0.00 | 0.00 | 81 | 1012.5 |
| 20260506123057 | 62 | 137 | 3.5 | 7.8 | 0.00 | 0.00 | 0.00 | 80 | 1012.6 |
| 20260506122553 | 62 | 163 | 1.7 | 7.8 | 0.00 | 0.00 | 0.00 | 81 | 1012.5 |
| 20260506122052 | 61 | 180 | 1.7 | 4.3 | 0.00 | 0.00 | 0.00 | 82 | 1012.4 |
| 20260506121549 | 61 | 244 | 0.9 | 5.2 | 0.00 | 0.00 | 0.00 | 83 | 1012.5 |
| 20260506121045 | 61 | 175 | 1.7 | 6.1 | 0.00 | 0.00 | 0.00 | 83 | 1012.3 |
| 20260506120543 | 60 | 151 | 11.3 | 12.2 | 0.00 | 0.00 | 0.00 | 85 | 1012.4 |
| 20260506120040 | 59 | 204 | 2.6 | 5.2 | 0.00 | 0.00 | 0.00 | 87 | 1012.5 |
| 20260506115538 | 58 | 131 | 6.1 | 7.8 | 0.00 | 0.00 | 0.00 | 88 | 1012.4 |
| 20260506115036 | 59 | 79 | 2.6 | 8.7 | 0.00 | 0.00 | 0.00 | 88 | 1012.2 |
| 20260506114533 | 58 | 169 | 1.7 | 5.2 | 0.00 | 0.00 | 0.00 | 88 | 1012.2 |
| 20260506114032 | 58 | 186 | 1.7 | 4.3 | 0.00 | 0.00 | 0.00 | 88 | 1012.2 |
| 20260506113529 | 58 | 246 | 3.5 | 9.6 | 0.00 | 0.00 | 0.00 | 88 | 1012.1 |
| 20260506113026 | 57 | 154 | 1.7 | 7.8 | 0.00 | 0.00 | 0.00 | 90 | 1012.3 |
| 20260506112523 | 57 | 79 | 2.6 | 3.5 | 0.00 | 0.00 | 0.00 | 91 | 1012.3 |
| 20260506112020 | 57 | 256 | 3.5 | 3.5 | 0.00 | 0.00 | 0.00 | 90 | 1012.3 |
| 20260506111518 | 57 | 125 | 1.7 | 6.1 | 0.00 | 0.00 | 0.00 | 90 | 1012.4 |
| 20260506111015 | 57 | 133 | 1.7 | 5.2 | 0.00 | 0.00 | 0.00 | 90 | 1012.7 |
| 20260506110513 | 57 | 76 | 1.7 | 7.8 | 0.00 | 0.00 | 0.00 | 91 | 1012.4 |
| 20260506110010 | 57 | 129 | 2.6 | 6.1 | 0.00 | 0.00 | 0.00 | 91 | 1012.3 |
| 20260506105506 | 57 | 157 | 2.6 | 5.2 | 0.00 | 0.00 | 0.00 | 91 | 1012.4 |
| 20260506105003 | 57 | 180 | 2.6 | 3.5 | 0.00 | 0.00 | 0.00 | 91 | 1012.3 |
| 20260506104501 | 56 | 112 | 0.0 | 7.8 | 0.00 | 0.00 | 0.00 | 92 | 1012.2 |
| 20260506103959 | 56 | 150 | 3.5 | 7.8 | 0.00 | 0.00 | 0.00 | 92 | 1012.5 |
| 20260506103455 | 56 | 137 | 4.3 | 5.2 | 0.00 | 0.00 | 0.00 | 92 | 1012.3 |
| 20260506102952 | 56 | 110 | 1.7 | 7.0 | 0.00 | 0.00 | 0.00 | 92 | 1012.4 |
| 20260506102451 | 56 | 151 | 5.2 | 5.2 | 0.00 | 0.00 | 0.00 | 92 | 1012.3 |
| 20260506101948 | 55 | 200 | 2.6 | 4.3 | 0.00 | 0.00 | 0.00 | 92 | 1012.4 |
| 20260506101444 | 55 | 173 | 2.6 | 5.2 | 0.00 | 0.00 | 0.00 | 92 | 1012.2 |
| 20260506100941 | 55 | 140 | 1.7 | 6.1 | 0.00 | 0.00 | 0.00 | 92 | 1012.3 |
| 20260506100440 | 55 | 140 | 3.5 | 4.3 | 0.00 | 0.00 | 0.00 | 92 | 1012.3 |
| 20260506095937 | 55 | 77 | 1.7 | 7.0 | 0.00 | 0.00 | 0.00 | 92 | 1012.2 |
| 20260506095436 | 55 | 160 | 1.7 | 4.3 | 0.00 | 0.00 | 0.00 | 92 | 1012.3 |
| 20260506094931 | 56 | 151 | 1.7 | 4.3 | 0.00 | 0.00 | 0.00 | 92 | 1012.1 |
| 20260506094430 | 56 | 130 | 0.0 | 5.2 | 0.00 | 0.00 | 0.00 | 91 | 1012.1 |
| 20260506093927 | 56 | 64 | 1.7 | 8.7 | 0.00 | 0.00 | 0.00 | 91 | 1012.1 |
| 20260506093425 | 56 | 86 | 1.7 | 5.2 | 0.00 | 0.00 | 0.00 | 91 | 1012.2 |
| 20260506092923 | 56 | 137 | 5.2 | 9.6 | 0.00 | 0.00 | 0.00 | 91 | 1012.3 |
| 20260506092421 | 56 | 223 | 1.7 | 2.6 | 0.00 | 0.00 | 0.00 | 91 | 1012.4 |
| 20260506091917 | 56 | 185 | 8.7 | 10.4 | 0.00 | 0.00 | 0.00 | 91 | 1012.1 |
| 20260506091415 | 56 | 203 | 1.7 | 5.2 | 0.00 | 0.00 | 0.00 | 90 | 1012.1 |
| 20260506090912 | 56 | 104 | 5.2 | 9.6 | 0.00 | 0.00 | 0.00 | 90 | 1012.4 |
| 20260506090410 | 56 | 114 | 0.9 | 5.2 | 0.00 | 0.00 | 0.00 | 90 | 1012.3 |
| 20260506085906 | 56 | 40 | 0.9 | 6.1 | 0.00 | 0.00 | 0.00 | 90 | 1012.3 |
| 20260506085403 | 56 | 209 | 1.7 | 6.1 | 0.00 | 0.00 | 0.00 | 90 | 1012.4 |
| 20260506084859 | 56 | 132 | 3.5 | 8.7 | 0.00 | 0.00 | 0.00 | 90 | 1012.3 |
| 20260506084356 | 56 | 185 | 0.9 | 8.7 | 0.00 | 0.00 | 0.00 | 90 | 1012.4 |
| 20260506083852 | 56 | 122 | 1.7 | 6.1 | 0.00 | 0.00 | 0.00 | 89 | 1012.5 |
| 20260506083350 | 56 | 81 | 1.7 | 5.2 | 0.00 | 0.00 | 0.00 | 89 | 1012.4 |
| 20260506082847 | 56 | 76 | 1.7 | 5.2 | 0.00 | 0.00 | 0.00 | 89 | 1012.3 |
| 20260506082343 | 56 | 84 | 2.6 | 7.0 | 0.00 | 0.00 | 0.00 | 89 | 1012.3 |
| 20260506081839 | 56 | 160 | 3.5 | 8.7 | 0.00 | 0.00 | 0.00 | 89 | 1012.4 |
| 20260506081337 | 56 | 95 | 1.7 | 7.8 | 0.00 | 0.00 | 0.00 | 89 | 1012.1 |
| 20260506080835 | 56 | 156 | 2.6 | 5.2 | 0.00 | 0.00 | 0.00 | 88 | 1012.2 |
| 20260506080332 | 57 | 99 | 2.6 | 7.0 | 0.00 | 0.00 | 0.00 | 88 | 1012.3 |
| 20260506073315 | 57 | 355 | 3.5 | 7.0 | 0.00 | 0.00 | 0.00 | 87 | 1012.5 |
| 20260506072812 | 57 | 202 | 1.7 | 6.1 | 0.00 | 0.00 | 0.00 | 87 | 1012.4 |
| 20260506072310 | 57 | 192 | 0.0 | 7.8 | 0.00 | 0.00 | 0.00 | 86 | 1012.5 |
| 20260506071808 | 57 | 107 | 4.3 | 6.1 | 0.00 | 0.00 | 0.00 | 86 | 1012.5 |
| 20260506071306 | 57 | 2 | 1.7 | 7.0 | 0.00 | 0.00 | 0.00 | 86 | 1012.3 |
| 20260506070802 | 57 | 165 | 6.1 | 7.0 | 0.00 | 0.00 | 0.00 | 86 | 1012.5 |
| 20260506070259 | 57 | 119 | 3.5 | 5.2 | 0.00 | 0.00 | 0.00 | 85 | 1012.4 |
| 20260506062236 | 58 | 146 | 3.5 | 9.6 | 0.00 | 0.00 | 0.00 | 84 | 1012.4 |
| 20260506061732 | 58 | 10 | 3.5 | 5.2 | 0.00 | 0.00 | 0.00 | 84 | 1012.4 |
| 20260506061230 | 58 | 189 | 6.1 | 7.0 | 0.00 | 0.00 | 0.00 | 84 | 1012.2 |
| 20260506060728 | 58 | 123 | 2.6 | 7.8 | 0.00 | 0.00 | 0.00 | 83 | 1012.4 |
| 20260506060225 | 58 | 112 | 2.6 | 14.8 | 0.00 | 0.00 | 0.00 | 83 | 1012.4 |
| 20260506051156 | 59 | 156 | 2.6 | 7.8 | 0.00 | 0.00 | 0.00 | 80 | 1012.9 |
| 20260506050655 | 59 | 101 | 3.5 | 7.8 | 0.00 | 0.00 | 0.00 | 80 | 1012.7 |
| 20260506050151 | 60 | 145 | 4.3 | 10.4 | 0.00 | 0.00 | 0.00 | 80 | 1012.6 |
| 20260506044642 | 60 | 206 | 1.7 | 9.6 | 0.00 | 0.00 | 0.00 | 80 | 1012.8 |
| 20260506044139 | 60 | 142 | 2.6 | 8.7 | 0.00 | 0.00 | 0.00 | 79 | 1012.9 |
| 20260506043636 | 60 | 156 | 1.7 | 7.0 | 0.00 | 0.00 | 0.00 | 79 | 1012.9 |
| 20260506043134 | 60 | 190 | 1.7 | 7.0 | 0.00 | 0.00 | 0.00 | 79 | 1012.9 |
| 20260506042633 | 60 | 145 | 4.3 | 7.8 | 0.00 | 0.00 | 0.00 | 79 | 1012.9 |
| 20260506042131 | 61 | 127 | 5.2 | 11.3 | 0.00 | 0.00 | 0.00 | 78 | 1012.8 |
| 20260506041629 | 61 | 138 | 6.1 | 9.6 | 0.00 | 0.00 | 0.00 | 78 | 1012.9 |
| 20260506041125 | 61 | 180 | 4.3 | 8.7 | 0.00 | 0.00 | 0.00 | 78 | 1012.7 |
| 20260506040623 | 61 | 150 | 2.6 | 11.3 | 0.00 | 0.00 | 0.00 | 78 | 1012.9 |
| 20260506040120 | 61 | 217 | 0.9 | 7.8 | 0.00 | 0.00 | 0.00 | 78 | 1012.7 |
| 20260506035617 | 61 | 199 | 3.5 | 10.4 | 0.00 | 0.00 | 0.00 | 77 | 1013.1 |
| 20260506035113 | 61 | 169 | 0.9 | 7.8 | 0.00 | 0.00 | 0.00 | 77 | 1013.1 |
| 20260506034611 | 60 | 104 | 3.5 | 3.5 | 0.00 | 0.00 | 0.00 | 77 | 1013.0 |
| 20260506034108 | 61 | 126 | 2.6 | 5.2 | 0.00 | 0.00 | 0.00 | 77 | 1012.8 |
| 20260506033605 | 61 | 20 | 3.5 | 5.2 | 0.00 | 0.00 | 0.00 | 76 | 1013.0 |
| 20260506033101 | 61 | 151 | 7.0 | 10.4 | 0.00 | 0.00 | 0.00 | 76 | 1012.9 |
| 20260506032559 | 61 | 169 | 8.7 | 13.0 | 0.00 | 0.00 | 0.00 | 75 | 1012.9 |
| 20260506032056 | 61 | 177 | 4.3 | 7.8 | 0.00 | 0.00 | 0.00 | 74 | 1012.9 |
| 20260506031553 | 61 | 125 | 2.6 | 11.3 | 0.00 | 0.00 | 0.00 | 74 | 1013.0 |
| 20260506031050 | 61 | 178 | 5.2 | 9.6 | 0.00 | 0.00 | 0.00 | 73 | 1013.0 |
| 20260506030548 | 61 | 113 | 3.5 | 8.7 | 0.00 | 0.00 | 0.00 | 72 | 1013.1 |
| 20260506030045 | 61 | 135 | 10.4 | 12.2 | 0.00 | 0.00 | 0.00 | 72 | 1012.8 |
| 20260506025542 | 62 | 121 | 5.2 | 9.6 | 0.00 | 0.00 | 0.00 | 71 | 1012.8 |
| 20260506025038 | 62 | 178 | 3.5 | 7.8 | 0.00 | 0.00 | 0.00 | 71 | 1013.0 |
| 20260506024535 | 62 | 141 | 1.7 | 9.6 | 0.00 | 0.00 | 0.00 | 71 | 1012.7 |
| 20260506024031 | 62 | 131 | 2.6 | 10.4 | 0.00 | 0.00 | 0.00 | 71 | 1012.8 |
| 20260506023528 | 62 | 135 | 2.6 | 14.8 | 0.00 | 0.00 | 0.00 | 70 | 1012.6 |
| 20260506023026 | 62 | 218 | 2.6 | 8.7 | 0.00 | 0.00 | 0.00 | 71 | 1012.9 |
| 20260506022523 | 62 | 117 | 2.6 | 7.0 | 0.00 | 0.00 | 0.00 | 70 | 1012.7 |
| 20260506022020 | 62 | 71 | 3.5 | 14.8 | 0.00 | 0.00 | 0.00 | 70 | 1012.8 |
| 20260506021518 | 62 | 133 | 3.5 | 7.0 | 0.00 | 0.00 | 0.00 | 70 | 1012.6 |
| 20260506021015 | 62 | 134 | 7.8 | 7.8 | 0.00 | 0.00 | 0.00 | 71 | 1012.5 |
| 20260506020512 | 62 | 162 | 0.9 | 7.0 | 0.00 | 0.00 | 0.00 | 71 | 1012.7 |
| 20260506020010 | 61 | 79 | 3.5 | 6.1 | 0.00 | 0.00 | 0.00 | 71 | 1012.7 |
| 20260506015507 | 61 | 195 | 1.7 | 10.4 | 0.00 | 0.00 | 0.00 | 71 | 1012.7 |
| 20260506015003 | 61 | 15 | 2.6 | 7.0 | 0.00 | 0.00 | 0.00 | 71 | 1012.6 |
| 20260506014501 | 61 | 115 | 8.7 | 9.6 | 0.00 | 0.00 | 0.00 | 70 | 1012.6 |
| 20260506013957 | 61 | 168 | 4.3 | 8.7 | 0.00 | 0.00 | 0.00 | 71 | 1012.5 |
| 20260506013455 | 62 | 111 | 6.1 | 7.8 | 0.00 | 0.00 | 0.00 | 70 | 1012.6 |
| 20260506012950 | 62 | 125 | 4.3 | 8.7 | 0.00 | 0.00 | 0.00 | 70 | 1012.5 |
| 20260506012447 | 62 | 78 | 1.7 | 6.1 | 0.00 | 0.00 | 0.00 | 70 | 1012.3 |
| 20260506011944 | 62 | 181 | 4.3 | 11.3 | 0.00 | 0.00 | 0.00 | 69 | 1012.4 |
| 20260506011442 | 62 | 254 | 3.5 | 9.6 | 0.00 | 0.00 | 0.00 | 69 | 1012.3 |
| 20260506010938 | 62 | 132 | 4.3 | 9.6 | 0.00 | 0.00 | 0.00 | 69 | 1012.3 |
| 20260506010437 | 62 | 98 | 4.3 | 4.3 | 0.00 | 0.00 | 0.00 | 69 | 1012.3 |
| 20260506005933 | 62 | 127 | 1.7 | 6.1 | 0.00 | 0.00 | 0.00 | 69 | 1012.0 |
| 20260506005431 | 62 | 191 | 2.6 | 11.3 | 0.00 | 0.00 | 0.00 | 69 | 1012.1 |
| 20260506004926 | 62 | 170 | 1.7 | 7.0 | 0.00 | 0.00 | 0.00 | 68 | 1011.9 |
| 20260506004424 | 62 | 66 | 4.3 | 5.2 | 0.00 | 0.00 | 0.00 | 68 | 1012.0 |
| 20260506003920 | 62 | 288 | 2.6 | 7.8 | 0.00 | 0.00 | 0.00 | 67 | 1011.9 |
| 20260506003417 | 62 | 208 | 2.6 | 7.0 | 0.00 | 0.00 | 0.00 | 67 | 1012.0 |
| 20260506002913 | 62 | 171 | 4.3 | 5.2 | 0.00 | 0.00 | 0.00 | 67 | 1011.5 |
| 20260506002409 | 63 | 162 | 3.5 | 7.0 | 0.00 | 0.00 | 0.00 | 67 | 1011.4 |
| 20260506001905 | 63 | 269 | 1.7 | 9.6 | 0.00 | 0.00 | 0.00 | 66 | 1011.6 |
| 20260506001402 | 63 | 234 | 1.7 | 11.3 | 0.00 | 0.00 | 0.00 | 66 | 1011.6 |
| 20260506000859 | 63 | 216 | 1.7 | 7.8 | 0.00 | 0.00 | 0.00 | 66 | 1011.4 |
| 20260506000357 | 63 | 99 | 0.9 | 7.8 | 0.00 | 0.00 | 0.00 | 66 | 1011.5 |
| 20260505235853 | 63 | 161 | 6.1 | 6.1 | 0.00 | 0.00 | 0.00 | 65 | 1011.3 |
| 20260505235351 | 63 | 195 | 0.9 | 9.6 | 0.00 | 0.00 | 0.00 | 65 | 1011.2 |
| 20260505234848 | 64 | 295 | 1.7 | 5.2 | 0.00 | 0.00 | 0.00 | 65 | 1011.3 |
| 20260505234346 | 64 | 151 | 3.5 | 9.6 | 0.00 | 0.00 | 0.00 | 64 | 1011.0 |
| 20260505233842 | 64 | 164 | 2.6 | 9.6 | 0.00 | 0.00 | 0.00 | 64 | 1011.2 |
| 20260505233340 | 64 | 157 | 3.5 | 4.3 | 0.00 | 0.00 | 0.00 | 65 | 1010.9 |
| 20260505232837 | 65 | 272 | 1.7 | 6.1 | 0.00 | 0.00 | 0.00 | 64 | 1010.9 |
| 20260505232335 | 65 | 145 | 7.0 | 7.8 | 0.00 | 0.00 | 0.00 | 63 | 1010.8 |
| 20260505231831 | 66 | 92 | 2.6 | 4.3 | 0.00 | 0.00 | 0.00 | 63 | 1010.9 |
| 20260505231329 | 66 | 89 | 1.7 | 13.0 | 0.00 | 0.00 | 0.00 | 62 | 1010.7 |
| 20260505230827 | 66 | 119 | 3.5 | 10.4 | 0.00 | 0.00 | 0.00 | 62 | 1010.5 |
| 20260505230324 | 66 | 194 | 2.6 | 5.2 | 0.00 | 0.00 | 0.00 | 62 | 1010.4 |
| 20260505225821 | 67 | 142 | 7.8 | 8.7 | 0.00 | 0.00 | 0.00 | 61 | 1010.6 |
| 20260505225318 | 67 | 180 | 2.6 | 9.6 | 0.00 | 0.00 | 0.00 | 61 | 1010.4 |
| 20260505224813 | 68 | 143 | 7.8 | 8.7 | 0.00 | 0.00 | 0.00 | 60 | 1010.2 |
| 20260505224311 | 68 | 92 | 3.5 | 4.3 | 0.00 | 0.00 | 0.00 | 60 | 1010.5 |
| 20260505223808 | 68 | 92 | 3.5 | 4.3 | 0.00 | 0.00 | 0.00 | 60 | 1010.3 |
| 20260505223305 | 68 | 153 | 0.0 | 3.5 | 0.00 | 0.00 | 0.00 | 60 | 1010.6 |
| 20260505222800 | 68 | 153 | 0.0 | 3.5 | 0.00 | 0.00 | 0.00 | 60 | 1010.5 |
| 20260505222257 | 68 | 128 | 2.6 | 3.5 | 0.00 | 0.00 | 0.00 | 60 | 1010.6 |
| 20260505221754 | 69 | 134 | 3.5 | 3.5 | 0.00 | 0.00 | 0.00 | 60 | 1010.6 |
| 20260505221251 | 68 | 123 | 6.1 | 7.0 | 0.00 | 0.00 | 0.00 | 60 | 1010.4 |
| 20260505220748 | 69 | 147 | 7.0 | 7.8 | 0.00 | 0.00 | 0.00 | 60 | 1010.4 |
| 20260505220245 | 69 | 242 | 1.7 | 5.2 | 0.00 | 0.00 | 0.00 | 59 | 1010.4 |
| 20260505215743 | 69 | 182 | 4.3 | 5.2 | 0.00 | 0.00 | 0.00 | 58 | 1010.3 |
| 20260505215241 | 70 | 242 | 1.7 | 7.0 | 0.00 | 0.00 | 0.00 | 58 | 1010.3 |
| 20260505214738 | 70 | 225 | 0.0 | 5.2 | 0.00 | 0.00 | 0.00 | 58 | 1010.4 |
| 20260505214235 | 70 | 193 | 3.5 | 11.3 | 0.00 | 0.00 | 0.00 | 58 | 1010.4 |
| 20260505213732 | 71 | 191 | 4.3 | 7.8 | 0.00 | 0.00 | 0.00 | 56 | 1010.0 |
| 20260505213230 | 70 | 160 | 3.5 | 5.2 | 0.00 | 0.00 | 0.00 | 58 | 1010.3 |
| 20260505212726 | 70 | 182 | 8.7 | 9.6 | 0.00 | 0.00 | 0.00 | 57 | 1010.1 |
| 20260505212223 | 70 | 169 | 2.6 | 5.2 | 0.00 | 0.00 | 0.00 | 57 | 1010.1 |
| 20260505211715 | 70 | 211 | 0.9 | 4.3 | 0.00 | 0.00 | 0.00 | 58 | 1010.1 |
| 20260505211212 | 70 | 229 | 2.6 | 10.4 | 0.00 | 0.00 | 0.00 | 58 | 1010.2 |
| 20260505210709 | 72 | 162 | 3.5 | 3.5 | 0.00 | 0.00 | 0.00 | 56 | 1010.2 |
| 20260505210205 | 70 | 171 | 2.6 | 8.7 | 0.00 | 0.00 | 0.00 | 57 | 1010.4 |
| 20260505205703 | 71 | 196 | 1.7 | 6.1 | 0.00 | 0.00 | 0.00 | 57 | 1010.2 |
| 20260505205201 | 71 | 231 | 2.6 | 9.6 | 0.00 | 0.00 | 0.00 | 57 | 1010.1 |
| 20260505204656 | 71 | 260 | 1.7 | 13.9 | 0.00 | 0.00 | 0.00 | 57 | 1010.3 |
| 20260505204154 | 73 | 168 | 6.1 | 6.1 | 0.00 | 0.00 | 0.00 | 55 | 1010.2 |
| 20260505203651 | 72 | 174 | 3.5 | 9.6 | 0.00 | 0.00 | 0.00 | 56 | 1010.0 |
| 20260505203149 | 73 | 167 | 3.5 | 14.8 | 0.00 | 0.00 | 0.00 | 54 | 1010.2 |
| 20260505202644 | 72 | 180 | 2.6 | 9.6 | 0.00 | 0.00 | 0.00 | 55 | 1009.9 |
| 20260505202140 | 73 | 246 | 3.5 | 5.2 | 0.00 | 0.00 | 0.00 | 55 | 1010.1 |